ARIANE 2 DEB, 26726

Orbit data source: Space-Track

ARIANE 2 DEB, 26726 is space debris in HEO originally from a launch on Fri, 27 Jan 1989 UTC launched from the French Guiana (FRGUI). Debris objects in space refer to the collection of defunct objects orbiting the Earth. Examples of debris include non-operational satellites, rocket bodies, and fragments generated from explosions, collisions, or faulty payload assembly.

Loading next visibility...
Identifier
26726, 1989-006D
Orbit
HEO
Country
Flag of FRFR
Related business
Manufacturer
EADS/LV
Mission
Spacecraft
Bus & Motor
Unknown
Mass
Unknown
Launch date (UTC)
1989-01-27 (37 years ago)
Launch vehicle
Unknown
Launch site
French Guiana (FRGUI)
Object type
Payload
Rocket body
Debris
Shape & HBR
Unknown shape, 0.5 m
Radar Cross Section
Medium (>0.1 m² and <1 m²)

Expand to show TLE details & history
Last TLE update: 9 hours ago

TLE from 9 hours ago
0 ARIANE 2 DEB
1 26726U 89006D   25349.80734640  .00000019  00000-0  81715-3 0  9996
2 26726   7.6124 167.7841 7179654 258.6517  27.1152  2.27630338207047
Epoch: 2025-12-15T19:22Z
TLE epoch observation values (Epoch: 2025-12-15T19:22:34.728Z)
Latitude
1.70261°
Longitude
165.26134°
Altitude
10,359.916 km
Speed
5.594 km/s
True Right ascension
12h 02m 25s
True Declination
1° 41' 54"
Sunlit
Object was in daylight at epoch
Visualization orbit readout
Latitude
Unknown
Longitude
Unknown
Altitude
Unknown
Speed
Unknown
Apparent Right ascension
Unknown
Apparent Declination
Unknown
Sunlit
N/A
Visualization observer readout
Local Sidereal Time
03:12:44
Azimuth
Unknown
Elevation
Unknown
Doppler factor
Unknown
Orbital elements
Apogee altitude
35,567.722 km
Perigee altitude
508.022 km
Semi-major axis
24,416.009 km
Eccentricity
0.71797
Inclination
7.6124°
RAAN
167.7841°
Arg. of periapsis
258.6517°
True anomaly
114.2105°
Mean anomaly
27.1152°
Eccentric anomaly
64.12878°
Mean motion
0.56889 °/min
Orbital period
632.81 mins
BSTAR
0.00081715
Loading maneuver chart data...
Computing Atmospheric mass density...
Loading historical data...
Loading historical data...
Loading historical data...
Loading historical data...
Loading historical data...
Loading historical data...
Loading historical data...

Documentation

Showing up to 5 results
|